Location: Kalberh�ni
(46.4610°N, 7.2453°E)
Time: 15:01:26
(UTC+00:00)

Cosmos 1606 Rocket - Pass Details

Date: 24 October 2021
Orbit: 602 x 633 km, 82.5° (Epoch: 04 December)

Event Time Altitude Azimuth Distance (km) Brightness Sun altitude
Rises 04:44:05 0° 3° (N) 2,912 7.0 -13.9°
Reaches altitude 10° 04:46:48 10° 19° (NNE) 1,994 6.4 -13.4°
Maximum altitude 04:50:10 21° 69° (ENE) 1,394 6.3 -12.8°
Drops below altitude 10° 04:53:30 10° 119° (ESE) 1,967 7.3 -12.3°
Sets 04:56:09 0° 136° (SE) 2,861 7.8 -11.8°
